Weather History for Goshen, IN

Change the Weather History Date:

Friday, February 22, 2013

  Actual Average Record
Temperature  
Mean Temperature 28 °F -  
Max Temperature 34 °F 40 °F 65 °F (1983)
Min Temperature 21 °F 26 °F -12 °F (1963)
Degree Days  
Heating Degree Days 38    
Moisture  
Dew Point 24 °F    
Average Humidity 85    
Maximum Humidity 93    
Minimum Humidity 72    
Precipitation  
Precipitation 0.15 in - - ()
Sea Level Pressure  
Sea Level Pressure 29.91 in    
Wind  
Wind Speed 16 mph (SE)    
Max Wind Speed 22 mph    
Max Gust Speed 33 mph    
Visibility 4 miles    
Events Fog , Rain , Snow    
Averages and records for this station are not official NWS values.
T = Trace of Precipitation, MM = Missing Value Source: NWS Daily Summary

Daily Weather History Graph

Daily Weather History Graph

Search for Another Location

Airport:

Trip Planner

Search our weather history database for the weather conditions in past years. The results will help you decide how hot, cold, wet, or windy it might be!

Date:

Astronomy

Feb. 22, 2013 Rise Set
Actual Time 7:28 AM EST 6:25 PM EST
Civil Twilight 7:00 AM EST 6:53 PM EST
Nautical Twilight 6:27 AM EST 7:26 PM EST
Astronomical Twilight 5:55 AM EST 7:58 PM EST
Moon 3:35 PM EST (2/22) 5:14 AM EST (2/22)
Length of Visible Light 11h 53m
Length of Day
10h 57m
Waxing Gibbous, 90% of the Moon is Illuminated
Feb 22
Waxing Gibbous
Feb 25
Full
Mar 4
Last Quarter
Mar 11
New
Mar 19
First Quarter

Hourly Weather History & Observations

Time (EST) Temp. Windchill Dew Point Humidity Pressure Visibility Wind Dir Wind Speed Gust Speed Precip Events Conditions
12:53 AM 21.9 °F 6.2 °F 15.1 °F 75% 30.08 in 10.0 mi ESE 21.9 mph 33.4 mph N/A   Overcast
1:19 AM 21.2 °F 6.0 °F 15.8 °F 80% 30.06 in 1.8 mi ESE 19.6 mph 27.6 mph 0.00 in Snow Light Snow
1:53 AM 21.0 °F 5.0 °F 17.1 °F 85% 30.06 in 0.5 mi East 21.9 mph 29.9 mph 0.00 in Fog , Snow Snow
2:08 AM 21.2 °F 5.2 °F 17.6 °F 86% 29.99 in 0.5 mi East 21.9 mph - 0.01 in Fog , Snow Snow
2:15 AM 21.2 °F 6.8 °F 17.6 °F 86% 29.99 in 1.0 mi East 17.3 mph - 0.01 in Snow Light Snow
2:25 AM 21.2 °F 6.8 °F 17.6 °F 86% 29.99 in 2.0 mi East 17.3 mph 25.3 mph 0.01 in Snow Light Snow
2:42 AM 21.2 °F 6.8 °F 17.6 °F 86% 29.99 in 1.2 mi East 17.3 mph 25.3 mph 0.01 in Snow Light Snow
2:53 AM 21.9 °F 8.7 °F 17.1 °F 82% 30.03 in 1.2 mi East 15.0 mph 23.0 mph 0.01 in Snow Light Snow
3:16 AM 21.2 °F 5.6 °F 17.6 °F 86% 29.96 in 2.5 mi East 20.7 mph - 0.02 in   Overcast
3:31 AM 21.2 °F 5.6 °F 17.6 °F 86% 29.95 in 2.0 mi East 20.7 mph 27.6 mph 0.02 in Snow Light Snow
3:38 AM 21.2 °F 5.6 °F 17.6 °F 86% 29.95 in 1.8 mi East 20.7 mph 32.2 mph 0.02 in Snow Light Snow
3:45 AM 21.2 °F 7.3 °F 17.6 °F 86% 29.95 in 2.0 mi East 16.1 mph 32.2 mph 0.03 in Snow Light Snow
3:53 AM 21.9 °F 6.9 °F 18.0 °F 85% 29.98 in 1.8 mi East 19.6 mph - 0.03 in Snow Light Snow
4:09 AM 21.2 °F 7.8 °F 17.6 °F 86% 29.94 in 0.8 mi East 15.0 mph 27.6 mph 0.01 in Snow Light Snow
4:29 AM 23.0 °F 9.2 °F 19.4 °F 86% 29.92 in 1.0 mi East 17.3 mph 25.3 mph 0.03 in Snow Light Snow
4:53 AM 23.0 °F 9.6 °F 19.0 °F 85% 29.95 in 1.8 mi East 16.1 mph - 0.05 in Snow Light Snow
4:58 AM 23.0 °F 9.2 °F 19.4 °F 86% 29.92 in 2.0 mi East 17.3 mph 24.2 mph 0.00 in Rain Light Freezing Rain
5:16 AM 23.0 °F 10.1 °F 19.4 °F 86% 29.90 in 2.0 mi East 15.0 mph - 0.01 in Snow Light Snow
5:42 AM 24.8 °F 11.9 °F 19.4 °F 80% 29.90 in 1.2 mi East 16.1 mph - 0.02 in Snow Light Snow
5:53 AM 24.1 °F 11.5 °F 19.9 °F 84% 29.95 in 1.2 mi ESE 15.0 mph - 0.03 in Snow Light Snow
6:17 AM 24.8 °F 12.4 °F 19.4 °F 80% 29.91 in 0.5 mi East 15.0 mph - 0.01 in Fog , Snow Snow
6:26 AM 24.8 °F 13.4 °F 19.4 °F 80% 29.91 in 0.2 mi ESE 12.7 mph - 0.02 in Fog , Snow Snow
6:36 AM 24.8 °F 12.9 °F 19.4 °F 80% 29.90 in 1.0 mi ESE 13.8 mph - 0.03 in Snow Light Snow
6:41 AM 24.8 °F 13.4 °F 19.4 °F 80% 29.90 in 2.0 mi East 12.7 mph - 0.03 in Snow Light Snow
6:51 AM 24.8 °F 13.4 °F 19.4 °F 80% 29.90 in 3.0 mi East 12.7 mph - 0.03 in   Overcast
6:53 AM 24.1 °F 12.5 °F 19.9 °F 84% 29.94 in 4.0 mi East 12.7 mph - 0.03 in   Overcast
7:09 AM 24.8 °F 13.4 °F 21.2 °F 86% 29.90 in 3.0 mi East 12.7 mph 18.4 mph 0.00 in Rain Light Freezing Rain
7:38 AM 24.8 °F 12.9 °F 21.2 °F 86% 29.89 in 4.0 mi ESE 13.8 mph - 0.00 in Rain Light Freezing Rain
7:53 AM 25.0 °F 13.6 °F 21.0 °F 85% 29.93 in 2.0 mi ESE 12.7 mph - 0.00 in Snow Light Snow
8:04 AM 24.8 °F 14.0 °F 21.2 °F 86% 29.89 in 4.0 mi ESE 11.5 mph - 0.00 in   Overcast
8:50 AM 24.8 °F 13.4 °F 21.2 °F 86% 29.89 in 3.0 mi ESE 12.7 mph - 0.00 in   Overcast
8:53 AM 25.0 °F 14.2 °F 21.0 °F 85% 29.92 in 3.0 mi ESE 11.5 mph - 0.00 in   Overcast
9:14 AM 24.8 °F 14.0 °F 21.2 °F 86% 29.87 in 2.5 mi ESE 11.5 mph 19.6 mph N/A   Overcast
9:25 AM 24.8 °F 15.3 °F 21.2 °F 86% 29.87 in 3.0 mi ESE 9.2 mph - N/A   Overcast
9:53 AM 26.1 °F 16.2 °F 23.0 °F 88% 29.90 in 3.0 mi ESE 10.4 mph - N/A   Overcast
10:53 AM 28.0 °F 18.1 °F 24.1 °F 85% 29.89 in 4.0 mi SE 11.5 mph - N/A   Overcast
11:53 AM 28.9 °F 19.8 °F 26.1 °F 89% 29.89 in 3.0 mi SE 10.4 mph - N/A   Overcast
12:16 PM 30.2 °F 20.8 °F 26.6 °F 86% 29.85 in 2.5 mi SSE 11.5 mph - N/A   Overcast
12:48 PM 30.2 °F 21.3 °F 28.4 °F 93% 29.85 in 3.0 mi SSE 10.4 mph - N/A   Overcast
12:53 PM 30.9 °F 22.8 °F 27.0 °F 85% 29.88 in 3.0 mi SSE 9.2 mph - N/A   Overcast
1:03 PM 30.2 °F 22.6 °F 28.4 °F 93% 29.85 in 2.5 mi SSE 8.1 mph - N/A   Overcast
1:37 PM 32.0 °F 25.6 °F 28.4 °F 87% 29.85 in 2.5 mi South 6.9 mph - N/A   Overcast
1:50 PM 32.0 °F 24.8 °F 28.4 °F 87% 29.85 in 1.8 mi South 8.1 mph - N/A   Overcast
1:53 PM 32.0 °F 24.8 °F 30.0 °F 92% 29.88 in 1.8 mi South 8.1 mph - N/A   Overcast
2:28 PM 33.8 °F 25.8 °F 30.2 °F 87% 29.84 in 0.8 mi South 10.4 mph - N/A   Overcast
2:43 PM 33.8 °F 26.4 °F 30.2 °F 87% 29.85 in 1.0 mi SSW 9.2 mph - N/A   Overcast
2:53 PM 34.0 °F 25.0 °F 32.0 °F 92% 29.88 in 1.0 mi SSW 12.7 mph - N/A   Overcast
3:24 PM 33.8 °F 23.9 °F 30.2 °F 87% 29.84 in 2.0 mi SSW 15.0 mph - N/A   Overcast
3:44 PM 33.8 °F 23.5 °F 30.2 °F 87% 29.84 in 1.8 mi SSW 16.1 mph - 0.00 in   Overcast
3:53 PM 34.0 °F 25.0 °F 30.9 °F 89% 29.88 in 2.0 mi SSW 12.7 mph - 0.00 in   Overcast
4:08 PM 33.8 °F 23.5 °F 30.2 °F 87% 29.85 in 4.0 mi SW 16.1 mph - N/A   Overcast
4:30 PM 33.8 °F 25.3 °F 30.2 °F 87% 29.85 in 3.0 mi SW 11.5 mph - N/A   Overcast
4:53 PM 34.0 °F 24.6 °F 30.9 °F 89% 29.88 in 2.0 mi SW 13.8 mph - N/A   Overcast
5:10 PM 33.8 °F 24.3 °F 30.2 °F 87% 29.85 in 4.0 mi SW 13.8 mph - N/A   Overcast
5:21 PM 33.8 °F 24.3 °F 30.2 °F 87% 29.86 in 5.0 mi SW 13.8 mph - N/A   Overcast
5:38 PM 33.8 °F 24.8 °F 30.2 °F 87% 29.86 in 4.0 mi SW 12.7 mph - N/A   Overcast
5:53 PM 34.0 °F 23.8 °F 30.0 °F 85% 29.90 in 2.5 mi SW 16.1 mph 21.9 mph 0.00 in Rain Light Rain
6:03 PM 33.8 °F 23.9 °F 30.2 °F 87% 29.87 in 5.0 mi SW 15.0 mph 24.2 mph 0.00 in Rain Light Rain
6:18 PM 33.8 °F 22.8 °F 30.2 °F 87% 29.87 in 7.0 mi SW 18.4 mph - 0.00 in   Overcast
6:39 PM 33.8 °F 24.8 °F 28.4 °F 81% 29.88 in 10.0 mi SW 12.7 mph - 0.00 in   Overcast
6:53 PM 34.0 °F 23.8 °F 28.0 °F 79% 29.91 in 10.0 mi WSW 16.1 mph - 0.00 in   Overcast
7:53 PM 34.0 °F 26.6 °F 28.9 °F 82% 29.92 in 8.0 mi SW 9.2 mph - N/A   Overcast
8:53 PM 33.1 °F 25.5 °F 28.0 °F 82% 29.93 in 8.0 mi WSW 9.2 mph - N/A   Overcast
9:04 PM 33.8 °F 26.4 °F 28.4 °F 81% 29.90 in 9.0 mi SW 9.2 mph - N/A   Overcast
9:31 PM 33.8 °F 25.3 °F 26.6 °F 75% 29.91 in 10.0 mi SW 11.5 mph - N/A   Overcast
9:53 PM 33.1 °F 24.4 °F 26.1 °F 75% 29.94 in 10.0 mi WSW 11.5 mph - N/A   Overcast
10:26 PM 32.0 °F 22.5 °F 24.8 °F 75% 29.91 in 10.0 mi WSW 12.7 mph - N/A   Overcast
10:53 PM 30.9 °F 21.7 °F 24.1 °F 76% 29.94 in 10.0 mi West 11.5 mph - N/A   Overcast
11:53 PM 30.0 °F 20.5 °F 21.9 °F 72% 29.94 in 10.0 mi WSW 11.5 mph - N/A   Overcast